Member area
Imprimable
Wissant, 07-08/09/2019, FRA - Trail de la Côte d'Opale
List of reports > 31km - Result
Search: Page: [1]
190 Entries
 
Complains are not accepted anymore. Results are final.
PlaceNrLicenceNameAgeNATTeamTimeTkmMoy.ScrCity
1.24251885949COLLOT Pascal50FRAMARNE ET GONDOIRE ATMLETI2:27:554:47 12.5821
2.3159VELGHE Jean53BELPIPAIX2:32:404:56 12.1838
3.2184LEPERS Damien57FRAPOINTURES DE SEPTENTRION2:38:315:07 11.7373
4.2518LESAFFRE Eric52FRAQUESNOY POUR TOUS LES TEM2:39:465:10 11.6486
5.3390HOUZET Jean Baptiste51FRA2:43:135:16 11.40116
6.34331789121THESSIEU Christophe52FRAJOGGING AVENTURE RONCQUOI2:44:505:20 11.29130
7.2607POULAIN Guy56FRA2:45:005:20 11.27134
8.2462DUBUISSON Francis54BELJC BAUDOUR2:46:145:22 11.19146
9.2970DELSART Eric52FRA2:46:295:23 11.17149
10.26141062367TROPLENT Gilles55FRAPONTAULT AAC2:47:335:25 11.10162
11.2203NAEPELS Frederic51FRATEAMSRAC2:47:515:25 11.08164
12.2072BLANPAIN Jean Pierre54FRATEAM TRAIL GRAVELINES2:48:095:26 11.06166
13.2526LEYSEN Xavier59BEL2:51:005:31 10.88191
14.2362LETELLIER Pascal50FRA2:51:545:33 10.82199
15.2077COOPMAN Freddy50FRABETMUNE2:52:225:34 10.79206
16.2494DELYS Frank51BEL2:52:465:35 10.77210
17.2035HENNEQUIN Ludovic51FRA2:53:385:37 10.71217
18.3051HEURTEAUX Frédéric51FRA2:53:425:37 10.71218
19.3589CHIEUX Laurent53FRACREDIT MUTUEL2:53:535:37 10.70219
20.3267JEAN SPAGNOL Jean55FRA2:53:545:37 10.70220
21.3630CHOLET Pascal52FRA2:54:205:38 10.67229
22.2544DUBREUCQ Philippe51BELJC BAUDOUR2:54:235:38 10.67230
23.2606CHEVALIER Christian54FRACPSS2:54:355:38 10.65240
24.3133ORCEL Nicolas53FRA2:54:365:38 10.65241
25.2431TASSOU David50FRA2:54:495:39 10.64243
26.2717HEUSSCHEN Dominique55BEL2:55:045:39 10.63247
27.2916GOETHALS Christophe50FRA2:55:125:40 10.62248
28.3411LORTAL Franck53FRAPROPAGE COACM TRAIL2:55:135:40 10.62249
29.3182BEUTEAU MAIRET Jean Louis58FRAAJVN2:55:215:40 10.61251
30.34131451496LE GUEN Gilles51FRATPA2:55:395:40 10.59253
31.2656DUJARDIN Patrick53BELVTT-BERNISSART2:56:215:42 10.55259
32.3238MEUNIER Eric59FRA2:56:225:42 10.55260
33.2344FALLET GUIOL Denis51FRACOT ATMLETISME2:58:065:45 10.44279
34.2248VEROUGSTRAETE Jean-Christophe51BEL2:59:095:47 10.38300
35.2792DEWAELLE Michel50BELRCE3:03:555:56 10.11373
36.27762076831LEFEBVRE Jean-Michel57FRAVAFA3:04:055:57 10.10379
37.3566CHAUCHOY Olivier50FRA3:05:586:00 10.00413
38.2822PERIE Patrice58FRA3:06:216:01 9.98422
39.3657BECQUART Denis55FRAEFOR RECYCLAGE3:06:576:02 9.95429
40.3366REY Jean-François56FRA3:07:476:04 9.91442
41.2275CAROLUS Michaël52FRA3:08:396:06 9.86455
42.2827COURTI Daniel59FRA3:08:516:06 9.85459
43.2465BUISINE Laurent50FRAEXPENDABLES3:09:276:07 9.82466
44.2987BRESSAN Fabrice50FRASL GOSSELIES3:10:166:09 9.78489
45.2788HENNERON Eric56FRA3:10:196:09 9.77490
46.3584BORDEZ Franck58FRASPORT PLUS3:10:356:09 9.76497
47.2076LOUVET Christophe54FRA3:10:416:10 9.75499
48.2229BOUILLON Sylvain54FRAASUD JOGGING3:11:516:12 9.70512
49.2080TRUNFIO Vincent59FRA3:13:556:16 9.59535
50.3346CORNET Denis50BEL3:14:126:16 9.58536
51.2366POULAIN Olivier56FRACO TRITM3:14:426:17 9.55541
52.3612719811BARBIEUX Alain58FRAAMICALE DU VAL DE DE SOMM3:14:536:18 9.54543
53.3053MARSY Herve56FRAOWENS 363:14:556:18 9.54546
54.2673ROCCARO Giuseppe54BEL3:15:296:19 9.52560
55.2886MARESCAUX Gilles52FRA3:15:416:19 9.51561
56.2441PATERNOSTRE Laurent52BELTRI ATMLON3:16:016:20 9.49566
57.2975DE NARDI Jean-Carlo57BEL3:16:406:21 9.46576
58.3476BOUFFE Jean-Marc59FRALES TOUGNETTES3:17:096:22 9.43585
59.2381BOENS Frédéric50FRA3:17:466:23 9.41591
60.2419FICHAUX François56FRA3:17:486:23 9.40593
61.2898LEVITRE Franck55FRA3:18:206:24 9.38599
62.2816DELECROIX Vincent56FRA3:19:056:26 9.34607
63.3079GAUTIER Laurent50FRA3:19:236:26 9.33612
64.2885VANDEPLANQUE François50FRA3:19:416:27 9.32618
65.2432MOGIN Laurent50FRA3:19:476:27 9.31622
66.2345GODART Pierre52FRAL'ARDENTE VINEUIL APREMON3:20:046:28 9.30628
67.3564GOBERT Bruno53FRA3:20:146:28 9.29629
68.2179VANNIEUWENHUYSE Pascal51FRAGPMD3:20:496:29 9.26638
69.3431VANBESELAERE Vincent54FRAM2R3:21:186:30 9.24646
70.2379DELAFOYE Pascal52FRA3:21:286:30 9.23648
71.2385BOYAVAL Pascal50FRAJCL3:21:406:31 9.22657
72.3132219771MARECHAL Loic53FRAEASQY3:21:406:31 9.22658
73.2348HÉRÈS Olivier50FRA3:21:566:31 9.21663
74.2235CARBALLO Manuel56FRACOTRITM3:21:586:31 9.21666
75.3110DE LAVALLAZ Francois Régis52FRA3:22:176:32 9.20673
76.2652SESTITO Joseph53ITAUNION ATMLÉTIQUE DE CMATE3:22:326:32 9.18675
77.3595MARTY Didier51FRA3:23:436:35 9.13691
78.3045VAN NIEUWENHOVE Philippe51BEL3:24:486:37 9.08707
79.2775LECERF Raphael57FRA3:25:336:38 9.05715
80.3217LEFEVRE Marc58FRAALSTOM3:25:596:39 9.03722
81.2140SALON Patrick57FRACALOTTERIE ATMLETIC CLUB3:26:216:40 9.01728
82.3528MAERTEN Stephane50FRA3:26:306:40 9.01729
83.28451969456COURTÉ Laurent51FRAES SARTROUVILLE3:26:396:40 9.00732
84.2340ROCHUT Jean Pierre56FRACO TRITM ATMLETISME3:26:436:41 9.00733
85.3184LALANNE Cesaire55FRAAJVN3:26:596:41 8.99740
86.3460GAUTHIER Patrick55FRA3:27:006:41 8.99741
87.2261MOURAIN Eric55FRA24M00 D'EPPEVILLE3:27:066:41 8.98745
88.2016BLARET Laurent52FRAAC CAPELLOIS3:27:186:42 8.97751
89.2834SMAGGHE Jose55FRALES COP1DABORD3:27:266:42 8.97760
90.3502GONEL Bruno52FRA3:27:426:42 8.96766
91.2593TIMPERMAN Koen53BELTRAKKS3:28:026:43 8.94769
92.23211823736TASSART Robert57FRAMONTDIDIER ATMLETIX3:28:166:44 8.93777
93.2929ROBIN Olivier56FRA3:28:306:44 8.92780
94.2915PERRIN Patrick52FRACO TRITM ATMLETISME3:28:556:45 8.90787
95.2972LECLERCQ Sylvain50FRA3:29:016:45 8.90788
96.2726MESTDAGH Pascal53FRAJCL3:29:086:45 8.89792
97.2042BERQUEZ Michel50FRAAC CAPELLOIS3:29:236:46 8.88797
98.2759MEUNIER Jean-Christophe53BEL3:29:296:46 8.88801
99.2590BAJUS Eric58FRA3:29:466:46 8.87808
100.2159GRUT Dominique54FRA3:29:556:47 8.86809
101.2594478730AMARTIN Manu56FRACS IBM NORD3:29:556:47 8.86810
102.2330TOULEMONDE Laurent56FRAKESKEJ.FELA3:29:556:47 8.86811
103.2638NEZAR Patrice50FRA3:29:596:47 8.86813
104.3645ROLLAND Christian50FRACOURIR AU MONT DES CATS3:30:176:47 8.85819
105.3321MAKKI Ammar58FRA3:30:226:48 8.84820
106.2823GAUTIER Bruno58FRAAJCL GRAND QUEVILLY3:30:306:48 8.84825
107.2400DERAMBURE Philippe57FRA3:30:496:49 8.82831
108.2641MESSIER Laurent53FRA3:31:016:49 8.81836
109.2087DACQUIN Fabrice51FRA3:31:056:49 8.81839
110.2566FERNANDEZ-VERA Antonio53BELUAC3:31:356:50 8.79850
111.2706PORICHE Frederic50FRA3:32:066:51 8.77852
112.2502DELFORGE Albert58FRAPILIPPIDES TEMPLEUVE3:32:416:52 8.75866
113.2758MARTINEAU Alexandre56FRA3:32:456:52 8.74867
114.2500DELATTRE Francois54FRA3:33:016:53 8.73868
115.2887LEGROS Pascal56BELWAC3:33:146:53 8.72875
116.2398MAHIEUX Marc51FRA3:33:376:54 8.71876
117.2064NATANNI Christophe53FRA3:33:436:54 8.70877
118.3408CHARLET Gabriel51FRA3:33:486:54 8.70879
119.2178MORTREUX Andre59FRAUN MÊME REGARD POUR TOUS3:34:386:56 8.67890
120.2273MEERSSEMAN Dirk56BELJC DE PINTE3:34:596:57 8.65892
121.3156DEROUF Pierre-Yves57BELJC BAUDOUR3:35:076:57 8.65894
122.2839DELCROIX Eric54FRAMALLUIN TRIATMLON3:35:426:58 8.62903
123.2716DUPONCHEEL Jean Claude51FRARCE3:35:596:59 8.61904
124.2067CATTEAU Vincent54FRAR C ESTAIMPUIS3:35:596:59 8.61905
125.3076BOCQUET Jean-Marc50FRA3:36:146:59 8.60909
126.3008SAPY Patrick50FRA3:36:186:59 8.60911
127.2444BLANCKAERT Didier55FRA3:37:097:01 8.57925
128.2021CLERBOUT Marc54FRARC BLENDECQUES3:38:257:03 8.52932
129.3042CARDINAEL Christophe55FRA3:38:597:04 8.49944
130.2905BENSOUDA KORAICHI Mohammed Naoufal53FRA3:39:417:06 8.47955
131.3587VAN HAEVERE Danny53BELLMC3:40:427:08 8.43969
132.3507MALENGREAU Frederic50BEL3:41:087:08 8.41972
133.2947HAKIR Bernard53BELWORLDLINE TEAM3:41:237:09 8.40973
134.3638BOUCHER Eric57FRACOLGATE3:42:147:11 8.37983
135.3583HENEBEL Luc51FRA3:42:187:11 8.37984
136.3124PHILIPPE SUPIOT Philippe56FRACOURIR À BAISIEUX3:44:277:15 8.291003
137.34091105462CODEVELLE Jean Christophe52FRASTADE OLYMPIQUE CALAIS AT3:44:307:15 8.291005
138.2741TONNEAU Dominique52FRA3:45:437:17 8.241015
139.3637COLEMYN Ludovic53FRA3:45:487:18 8.241018
140.2681FOLCQUE Philippe55BELRUNING CLUB NAMUR (BELGIQ3:46:007:18 8.231026
141.3213LOBO Georges50FRA3:46:027:18 8.231027
142.2257SACRÉ Jean-François57BEL3:51:277:28 8.041083
143.3596PORCHER Bernard58FRA3:51:367:29 8.031087
144.2292CASTERMAN Thierry55BEL3:51:587:29 8.021092
145.3065AUBAULT Alain54FRATEAM RUBAN BLEU3:52:297:30 8.001102
146.3056MAQUIGNON Denis56FRA3:52:427:31 7.991107
147.2800LOEUIL Christophe52FRATRAIL LENT3:53:417:33 7.961123
148.3477BOULANGER Jean-Philippe55FRACALAIS TERRE D'OPALE TRAI3:53:477:33 7.961125
149.2997DEZEQUE Dominique56FRA3:53:517:33 7.951126
150.2536VEDRINES Nicolas50FRA3:54:237:34 7.941140
151.3541SENHADJI Youssef51FRAKALENJI3:55:597:37 7.881151
152.2662LEMAIRE Franck54FRA3:56:237:38 7.871156
153.3055LALEUW Ludovic50FRA3:56:257:38 7.871159
154.20921258731BENARD Jean-Marc58FRAARTOIS ATMLETISME3:56:487:39 7.861166
155.2654GERMAIN Guillaume54FRA3:57:137:40 7.841173
156.2784GOURLET Thomas58FRA3:57:137:40 7.841174
157.2084WASSELIN Thierry51FRA3:59:097:43 7.781193
158.2620DEQUEKER Frederic52FRA3:59:267:44 7.771196
159.3031MERY Ludovic52FRA4:04:007:53 7.621241
160.2777PIAT Gilles59FRACOURIR À BERSÉE4:07:027:59 7.531261
161.2635MADAU Jean Pierre53FRAGIO SARDO4:08:118:01 7.491267
162.2625ACCETTONE Bruno51FRA4:08:268:01 7.491268
163.32301452794FRANCOIS Eric59FRAOSA4:09:198:03 7.461276
164.31881441406FEDJKHI Brahim51FRAPLANÈTE RUNNING4:09:368:04 7.451278
165.3438LELEU Fabrice56FRALE ROUGE DEBOUT4:10:048:04 7.441284
166.2484DUBOYS DES TERMES Axel57FRA4:10:158:05 7.431285
167.2846LACHAUD Patrick57FRA4:10:158:05 7.431286
168.31261790221SANIER Olivier52FRAVAL DE SOMME4:10:588:06 7.411291
169.3578TREFIER Eric50FRASAPEURS POMPIERS ARGENTEU4:11:598:08 7.381300
170.2841BLAINEAU Patrice58FRA4:12:068:08 7.381301
171.3088BOUTTEFEUX Jean-Marc59BELACCRORUN4:14:258:13 7.311309
172.3183SALAGNAC Eric54FRAAJVN4:17:128:18 7.231321
173.2731JACQUEMART Thierryjacquemart59FRA4:19:058:22 7.181333
174.33221853381LEMOINE Thierry54FRAATMLETIC CLUB DES 4 VENTS4:20:448:25 7.131344
175.3601TOULEMONDE Arnauld55FRA4:21:288:27 7.111349
176.3102GOBERT Laurent50BELLES POTES Ô MALTÉS4:23:298:30 7.061359
177.3553DESREUMAUX Thierry54FRARABOT DUTILLEUL4:23:348:31 7.061361
178.3585FROUMENTIN Jean-Louis52FRALMC4:26:318:36 6.981367
179.3093FLAMENT Fabrice51FRA4:30:218:44 6.881372
180.2090LANNOYE Bruno52FRA4:32:008:47 6.841378
181.3163FASQUEL Fabrice50FRA4:33:548:51 6.791382
182.3356STEMBERG Antoine59FRA4:43:489:10 6.551395
DSQ3153SANIEZ Dominique59FRALES ROULEUX DE SOLESMES2:00:30
DSQ2890SIZAIRE Alain52FRA2:08:28
DSQ3155KIK Christophe51FRALES ROULEUX DE SOLESMES2:40:13
DSQ3294BRINCOURT Christophe54FRAFOULÉES SAINGMINOISES2:50:50
DSQ2290THYS Johan53BELETENGMIEN2:56:21
DSQ2386DESTABELLE Michel56FRAJCL DE MOUSCRON BELGIQUE2:57:04
DNF2495DEMUYNCK Bertrand56FRA
DNF2032504429RIGAUT Sylvain52FRACACB
DNF: did not finish; DSQ: disqualified; Speed in km/h
Page: [1]